[[{"header":{"parameterUnit":"m.s-1","parameterCategory":1,"la1":30.2991,"la2":30.254,"lo1":-89.0895,"lo2":-89.0444,"dy":0.0017,"dx":0.0017,"nx":28,"ny":28,"refTime":"2023-10-31T09:00:00:Z","depth":0,"parameterNumber":2,"parameterNumberName":"U-component_of_WINDS"},"data":[0,0,0,0,0,0,0,0,0,0,0,0,0,0,0,0,0,0,0,0,0,0,0,0,0,0,0,0,0,0,0,0,0,0,0,0,0,0,0,0,0,0,0,0,0,0,0,0,0,0,0,0,0,0,0,0,0,0,-0.5467,-0.5468,0,-0.5553,-0.5554,-0.5555,-0.5539,-0.5537,-0.5536,-0.5534,-0.5625,-0.5628,-0.5632,0,0,0,0,0,0,0,0,0,0,0,0,0,-0.5292,-0.5295,-0.5467,-0.5468,-0.5469,-0.5553,-0.5554,-0.5555,-0.5539,-0.5537,-0.5535,-0.5533,-0.5623,-0.5628,-0.5632,0,0,0,0,0,0,0,0,0,0,0,0,0,-0.5372,-0.5296,-0.5467,-0.5471,-0.5472,-0.5552,-0.5554,-0.5555,-0.5539,-0.5537,-0.5535,-0.5532,-0.5622,-0.5627,-0.5633,-0.5715,0,0,-0.5651,-0.5653,0,0,0,0,0,0,0,0,-0.5367,-0.5378,-0.547,-0.5471,-0.5473,-0.5533,-0.5525,-0.5609,-0.554,-0.5514,-0.5534,-0.5531,-0.5596,-0.5604,-0.5625,-0.5719,-0.5723,-0.5651,-0.5655,-0.5657,-0.5659,0,0,0,0,0,0,0,-0.5362,-0.5374,-0.5501,-0.5471,-0.5473,-0.5469,-0.5478,-0.5541,-0.5567,-0.5516,-0.5515,-0.5525,-0.5596,-0.5619,-0.5627,-0.5725,-0.5651,-0.5656,-0.566,-0.5662,-0.589,-0.5893,0,0,0,0,0,0,-0.5354,-0.537,-0.5498,-0.5504,-0.5413,-0.5474,-0.5484,-0.5516,-0.5566,-0.5572,-0.5527,-0.5524,-0.5611,-0.562,-0.563,-0.573,-0.5657,-0.5663,-0.5666,-0.5888,-0.5891,-0.5893,0,0,0,0,0,0,-0.5351,-0.5366,-0.5495,-0.5437,-0.5453,-0.548,-0.5515,-0.5519,-0.5542,-0.5575,-0.5579,-0.5546,-0.5609,-0.5622,-0.5694,-0.5733,-0.5665,-0.567,-0.5884,-0.5889,-0.5892,-0.593,0,0,0,0,0,0,-0.5346,-0.5365,-0.5396,-0.5437,-0.5456,-0.5557,-0.5518,-0.5522,-0.5551,-0.5548,-0.5593,-0.5599,-0.5608,-0.5685,-0.57,-0.574,-0.5675,-0.5881,-0.5886,-0.5891,-0.5926,-0.5935,-0.5943,0,0,0,0,0,-0.5339,-0.5404,-0.5398,-0.5413,-0.5495,-0.5559,-0.557,-0.5579,-0.5555,-0.5587,-0.5607,-0.5597,-0.5726,-0.5693,-0.5709,-0.5751,-0.5879,-0.5885,-0.589,-0.5922,-0.5933,-0.5942,0,0,0,0,0,0,-0.5368,-0.541,-0.5403,-0.5483,-0.5517,-0.5556,-0.5597,-0.5591,-0.5634,-0.563,-0.5639,-0.565,-0.5723,-0.5744,-0.5707,-0.5833,-0.5799,-0.5808,-0.5817,-0.5828,-0.5837,-0.5831,-0.568,0,0,0,0,0,-0.5383,-0.5431,-0.5465,-0.5532,-0.5549,-0.557,-0.5598,-0.5602,-0.5639,-0.5654,-0.568,-0.5717,-0.5765,-0.5798,-0.5844,-0.5927,-0.5937,-0.5964,-0.5973,-0.598,-0.5988,-0.6034,-0.6047,-0.5913,-0.5913,-0.5913,0,0,-0.5416,-0.5444,-0.5474,-0.5538,-0.5566,-0.5616,-0.5583,-0.5637,-0.5675,-0.5663,-0.5732,-0.5752,-0.5794,-0.5872,-0.5908,-0.5892,-0.6027,-0.5987,-0.5992,-0.5998,-0.6042,-0.6054,-0.6066,-0.5917,-0.5916,-0.5915,0,0,-0.5502,-0.5527,-0.5586,-0.5614,-0.5655,-0.5668,-0.5682,-0.5722,-0.5734,-0.5804,-0.5796,-0.584,-0.5923,-0.5953,-0.598,-0.6074,-0.6067,-0.6089,-0.6135,-0.6179,-0.619,-0.6199,-0.6234,-0.6247,-0.6097,-0.6097,-0.6097,0,-0.5538,-0.5612,-0.5617,-0.5673,-0.5701,-0.569,-0.575,-0.5777,-0.5832,-0.5852,-0.5833,-0.5936,-0.5964,-0.6049,-0.6071,-0.6093,-0.611,-0.6085,-0.6188,-0.6197,-0.6206,-0.624,-0.6253,-0.6099,-0.6099,-0.6099,-0.6099,0,-0.5654,-0.5706,-0.5748,-0.5801,-0.5833,-0.5891,-0.5906,-0.5938,-0.5938,-0.5953,-0.6024,-0.6056,-0.6108,-0.6128,-0.6129,-0.6213,-0.6202,-0.6185,-0.6152,-0.6222,-0.6253,-0.6266,-0.6103,-0.6102,-0.6101,-0.6101,0,0,-0.5763,-0.5816,-0.5832,-0.5855,-0.5899,-0.5939,-0.5995,-0.6046,-0.6074,-0.6111,-0.616,-0.6229,-0.6213,-0.6243,-0.6247,-0.6285,-0.6359,-0.6264,-0.6265,-0.6282,-0.6455,-0.6469,-0.6483,-0.6353,-0.6356,-0.6358,-0.6452,0,-0.5854,-0.5953,-0.5959,-0.6049,-0.6097,-0.6086,-0.6136,-0.6168,-0.6183,-0.6226,-0.6242,-0.6292,-0.6267,-0.6285,-0.6322,-0.6342,-0.6395,-0.6335,-0.64,-0.6402,-0.6392,-0.65,-0.6515,-0.6603,-0.6464,-0.6466,-0.6467,0,-0.5974,-0.6014,-0.6109,-0.6145,-0.6165,-0.6209,-0.6256,-0.6296,-0.6333,-0.6341,-0.6373,-0.6371,-0.6429,-0.6391,-0.6472,-0.6431,-0.6457,-0.6471,-0.6474,-0.6483,-0.6441,-0.6513,-0.6631,-0.6644,-0.6487,-0.6485,-0.6484,0,-0.6046,-0.6123,-0.619,-0.621,-0.6253,-0.6285,-0.6304,-0.6338,-0.6367,-0.6408,-0.6427,-0.6474,-0.65,-0.6536,-0.6547,-0.6518,-0.6627,-0.659,-0.6637,-0.6637,-0.6663,-0.6661,-0.6788,-0.6676,-0.6676,-0.6675,-0.6675,0,-0.6148,-0.6207,-0.6223,-0.6264,-0.6329,-0.6335,-0.6399,-0.6417,-0.6447,-0.6492,-0.6484,-0.6527,-0.6537,-0.6581,-0.659,-0.6656,-0.6667,-0.6676,-0.6678,-0.6678,-0.6677,-0.6697,-0.6692,-0.6679,-0.6678,-0.6677,-0.6677,0,-0.6241,-0.6253,-0.6326,-0.636,-0.637,-0.6417,-0.6446,-0.6486,-0.6499,-0.6556,-0.6569,-0.659,-0.6642,-0.6655,-0.6717,-0.6722,-0.68,-0.6796,-0.6788,-0.6789,-0.6835,-0.6831,-0.6981,-0.7002,-0.6874,-0.6875,-0.6876,0,-0.6307,-0.6351,-0.639,-0.6419,-0.644,-0.6487,-0.6516,-0.6523,-0.6554,-0.6597,-0.6632,-0.6682,-0.6723,-0.6806,-0.6827,-0.6874,-0.6872,-0.6921,-0.6879,-0.6878,-0.6875,-0.6873,-0.6878,-0.693,-0.6931,-0.6932,-0.6933,0,-0.6422,-0.6426,-0.6468,-0.6513,-0.6549,-0.6584,-0.6619,-0.6643,-0.6654,-0.6689,-0.6741,-0.6773,-0.6835,-0.6886,-0.6933,-0.6953,-0.6946,-0.6946,-0.6959,-0.6961,-0.6956,-0.6961,-0.6812,-0.6943,-0.6942,-0.6941,-0.6941,-0.6941,-0.6505,-0.6544,-0.6577,-0.6625,-0.6651,-0.6682,-0.6721,-0.6738,-0.6781,-0.6832,-0.6833,-0.689,-0.6924,-0.6986,-0.7009,-0.7054,-0.7039,-0.7058,-0.7064,-0.7069,-0.7074,-0.6946,-0.7062,-0.7062,-0.7062,-0.7061,-0.7061,0,-0.6622,-0.6642,-0.6685,-0.6733,-0.677,-0.6757,-0.6794,-0.6826,-0.6876,-0.6908,-0.6948,-0.7007,-0.7056,-0.7079,-0.7127,-0.7159,-0.7156,-0.7171,-0.717,-0.7175,-0.7083,-0.7068,-0.7172,-0.7172,-0.7172,-0.7172,-0.7172,-0.7172,-0.6687,-0.6753,-0.676,-0.6838,-0.6858,-0.6913,-0.6935,-0.6965,-0.699,-0.7056,-0.7096,-0.711,-0.7139,-0.7189,-0.7232,-0.7238,-0.7257,-0.7274,-0.7278,-0.7193,-0.7182,-0.7171,-0.7156,-0.7277,-0.7278,-0.7366,-0.7367,-0.7368]},{"header":{"parameterUnit":"m.s-1","parameterCategory":1,"la1":30.2991,"la2":30.254,"lo1":-89.0895,"lo2":-89.0444,"dy":0.0017,"dx":0.0017,"nx":28,"ny":28,"refTime":"2023-10-31T09:00:00:Z","depth":0,"parameterNumber":3,"parameterNumberName":"V-component_of_WINDS"},"data":[0,0,0,0,0,0,0,0,0,0,0,0,0,0,0,0,0,0,0,0,0,0,0,0,0,0,0,0,0,0,0,0,0,0,0,0,0,0,0,0,0,0,0,0,0,0,0,0,0,0,0,0,0,0,0,0,0,0,-9.5734,-9.5736,0,-9.593,-9.5932,-9.5934,-9.5822,-9.5816,-9.5811,-9.5805,-9.5998,-9.6008,-9.6018,0,0,0,0,0,0,0,0,0,0,0,0,0,-9.5256,-9.5265,-9.5734,-9.5737,-9.5739,-9.593,-9.5932,-9.5935,-9.5823,-9.5816,-9.5809,-9.5803,-9.5994,-9.6006,-9.6019,0,0,0,0,0,0,0,0,0,0,0,0,0,-9.5459,-9.5268,-9.5734,-9.5706,-9.5706,-9.5929,-9.5932,-9.5936,-9.5824,-9.5816,-9.5807,-9.58,-9.599,-9.6005,-9.602,-9.6279,0,0,-9.6067,-9.6074,0,0,0,0,0,0,0,0,-9.5447,-9.5476,-9.5708,-9.5709,-9.5708,-9.5843,-9.5834,-9.6051,-9.5826,-9.5779,-9.5805,-9.5796,-9.5952,-9.597,-9.6025,-9.6288,-9.6297,-9.6069,-9.6078,-9.6085,-9.6089,0,0,0,0,0,0,0,-9.5433,-9.5467,-9.5811,-9.5711,-9.5712,-9.5681,-9.5701,-9.5874,-9.5909,-9.5782,-9.5775,-9.58,-9.5951,-9.601,-9.6028,-9.63,-9.6068,-9.6082,-9.6091,-9.6097,-9.6785,-9.6794,0,0,0,0,0,0,-9.5422,-9.5456,-9.5805,-9.5817,-9.5555,-9.5697,-9.5719,-9.5808,-9.5907,-9.5914,-9.5807,-9.5794,-9.5988,-9.6011,-9.6035,-9.6345,-9.6084,-9.6099,-9.6108,-9.6776,-9.6787,-9.6797,0,0,0,0,0,0,-9.5412,-9.5454,-9.5797,-9.5635,-9.5676,-9.5714,-9.5815,-9.5816,-9.5876,-9.5925,-9.593,-9.5862,-9.5983,-9.6013,-9.622,-9.635,-9.6106,-9.612,-9.6765,-9.6779,-9.6792,-9.6968,0,0,0,0,0,0,-9.5399,-9.5452,-9.5552,-9.5638,-9.5685,-9.5982,-9.5823,-9.5826,-9.5903,-9.5888,-9.5978,-9.5985,-9.5978,-9.6198,-9.6235,-9.6367,-9.6132,-9.6754,-9.6772,-9.6788,-9.695,-9.6986,-9.7016,0,0,0,0,0,-9.5382,-9.5592,-9.5558,-9.5601,-9.5813,-9.599,-9.6017,-9.6007,-9.5914,-9.6015,-9.6047,-9.5982,-9.633,-9.622,-9.6261,-9.6399,-9.6746,-9.6767,-9.6786,-9.6936,-9.6979,-9.7015,0,0,0,0,0,0,-9.5518,-9.5603,-9.5566,-9.581,-9.5894,-9.5971,-9.6097,-9.6053,-9.6163,-9.6144,-9.6125,-9.6146,-9.6362,-9.64,-9.6277,-9.6655,-9.6523,-9.6552,-9.6622,-9.6663,-9.6695,-9.6682,-9.6144,0,0,0,0,0,-9.5577,-9.5716,-9.5782,-9.5991,-9.6035,-9.606,-9.6136,-9.6122,-9.6207,-9.6241,-9.6288,-9.6371,-9.6498,-9.6582,-9.6703,-9.6955,-9.6972,-9.707,-9.7103,-9.7129,-9.7155,-9.7291,-9.7336,-9.6864,-9.6864,-9.6863,0,0,-9.5698,-9.5762,-9.5851,-9.602,-9.6083,-9.6226,-9.609,-9.6246,-9.6352,-9.6263,-9.6463,-9.65,-9.6591,-9.6822,-9.6926,-9.6861,-9.7289,-9.7155,-9.7176,-9.7188,-9.7317,-9.7362,-9.7401,-9.6878,-9.6875,-9.6873,0,0,-9.5994,-9.6057,-9.6238,-9.6305,-9.6404,-9.6418,-9.6462,-9.6546,-9.6569,-9.6769,-9.6706,-9.6829,-9.7049,-9.7117,-9.718,-9.7502,-9.7447,-9.7541,-9.7712,-9.7845,-9.7882,-9.7915,-9.803,-9.8072,-9.7567,-9.7567,-9.7568,0,-9.6132,-9.6348,-9.6336,-9.6499,-9.6575,-9.6504,-9.6687,-9.6751,-9.6883,-9.6936,-9.6861,-9.7138,-9.7193,-9.7439,-9.7518,-9.7572,-9.762,-9.7531,-9.7878,-9.7911,-9.7942,-9.8051,-9.8094,-9.7578,-9.7577,-9.7576,-9.7575,0,-9.6514,-9.6664,-9.6798,-9.6931,-9.7021,-9.7193,-9.7205,-9.7297,-9.7275,-9.7297,-9.7501,-9.7566,-9.7698,-9.7755,-9.7734,-9.7999,-9.7955,-9.7881,-9.7747,-9.7998,-9.81,-9.8142,-9.7594,-9.759,-9.7587,-9.7584,0,0,-9.69,-9.7025,-9.7075,-9.7134,-9.7238,-9.7353,-9.752,-9.7653,-9.7732,-9.7825,-9.7964,-9.8153,-9.8085,-9.8157,-9.8142,-9.8259,-9.851,-9.8169,-9.8171,-9.8231,-9.8805,-9.8862,-9.8911,-9.8473,-9.8481,-9.8488,-9.8798,0,-9.7203,-9.75,-9.7494,-9.7768,-9.7906,-9.7841,-9.7987,-9.8065,-9.809,-9.8209,-9.8234,-9.8369,-9.8269,-9.8312,-9.8424,-9.8456,-9.8625,-9.8433,-9.8601,-9.8608,-9.8582,-9.8964,-9.9025,-9.9315,-9.8838,-9.8845,-9.885,0,-9.7596,-9.7706,-9.7995,-9.8079,-9.8137,-9.8269,-9.839,-9.8505,-9.8591,-9.86,-9.8682,-9.8649,-9.8816,-9.8679,-9.8909,-9.8778,-9.8846,-9.8872,-9.8883,-9.8899,-9.8744,-9.8991,-9.9407,-9.9451,-9.8912,-9.8907,-9.8903,0,-9.7851,-9.807,-9.8271,-9.8324,-9.8427,-9.8521,-9.8568,-9.8646,-9.8727,-9.8831,-9.8882,-9.9004,-9.9071,-9.9165,-9.9164,-9.9064,-9.9397,-9.9259,-9.9409,-9.9409,-9.9482,-9.9478,-9.9916,-9.9526,-9.9525,-9.9524,-9.9523,0,-9.819,-9.837,-9.8387,-9.8512,-9.871,-9.87,-9.8896,-9.8933,-9.9004,-9.9132,-9.9082,-9.9202,-9.9195,-9.9316,-9.9317,-9.9507,-9.9537,-9.9548,-9.9546,-9.9554,-9.9553,-9.9599,-9.9579,-9.9536,-9.9533,-9.9531,-9.9529,0,-9.8508,-9.8527,-9.8743,-9.8823,-9.8848,-9.8991,-9.9058,-9.9175,-9.9195,-9.9358,-9.9396,-9.9427,-9.9568,-9.9577,-9.9738,-9.9738,-9.997,-9.9945,-9.9942,-9.9938,-10.0088,-10.0074,-10.0571,-10.0635,-10.0203,-10.0207,-10.021,0,-9.8724,-9.8861,-9.8957,-9.9041,-9.9094,-9.923,-9.9312,-9.9306,-9.9394,-9.9503,-9.9606,-9.9743,-9.9852,-10.0079,-10.0115,-10.0238,-10.0216,-10.0382,-10.0234,-10.0237,-10.0219,-10.0212,-10.0225,-10.0411,-10.0415,-10.0419,-10.0422,0,-9.9105,-9.9108,-9.923,-9.9357,-9.9457,-9.9555,-9.9647,-9.9717,-9.9723,-9.9823,-9.9968,-10.0053,-10.0219,-10.0355,-10.0476,-10.052,-10.0473,-10.0469,-10.051,-10.0519,-10.0512,-10.0519,-10.0021,-10.0457,-10.0454,-10.0451,-10.0449,-10.0448,-9.9379,-9.9498,-9.9585,-9.9723,-9.9792,-9.9879,-9.9993,-10.0029,-10.015,-10.0288,-10.0276,-10.0437,-10.0518,-10.0676,-10.073,-10.0854,-10.0797,-10.0857,-10.0872,-10.0887,-10.0903,-10.0492,-10.0875,-10.0874,-10.0873,-10.0872,-10.0872,0,-9.9759,-9.9812,-9.9939,-10.007,-10.0178,-10.0126,-10.0224,-10.0318,-10.0461,-10.0542,-10.0652,-10.0818,-10.0949,-10.0996,-10.1123,-10.1213,-10.1194,-10.1247,-10.124,-10.1251,-10.0946,-10.0898,-10.126,-10.126,-10.126,-10.1259,-10.1259,-10.1259,-9.9969,-10.0168,-10.0182,-10.0414,-10.0464,-10.0624,-10.0685,-10.0764,-10.0829,-10.1018,-10.1129,-10.1159,-10.1226,-10.1358,-10.1475,-10.1485,-10.1534,-10.1597,-10.1597,-10.1312,-10.1273,-10.1235,-10.119,-10.1607,-10.1608,-10.1892,-10.1895,-10.1897]}]]